period_start,C,m1,H,J0,J1,J2,J3,J4,J5,JA,JB,JC,JD,JJ,JK,JN,#
2016-04-10 00:04:05,0.12,7.87,0.00,13.35,17.82,21.82,15.23,51.08,1022.51,2069.96,1453.19,1773.63,1974.99,599.61,619.30,52.86,0000 0000 0000 0000 000000
2016-04-10 00:09:07,-0.02,7.88,0.00,13.41,17.86,21.88,15.30,51.14,1022.49,2069.55,1452.87,1773.03,1974.17,599.99,619.60,52.91,0000 0000 0000 0000 000000
2016-04-10 00:14:08,0.14,7.88,0.00,13.46,17.90,21.90,15.24,51.14,1022.50,2069.09,1451.67,1772.30,1973.50,600.31,619.77,52.96,0000 0000 0000 0000 000000
2016-04-10 00:19:09,0.06,7.88,0.00,13.52,17.94,22.02,15.27,51.23,1022.49,2069.02,1450.88,1771.88,1972.90,600.18,619.48,53.01,0000 0000 0000 0000 000000
2016-04-10 00:24:11,0.13,7.89,0.00,13.56,17.99,22.03,15.19,51.17,1022.48,2069.01,1449.98,1771.07,1972.07,600.03,619.24,53.06,0000 0000 0000 0000 000000
2016-04-10 00:29:12,0.13,7.89,0.00,13.63,18.04,22.08,15.22,51.11,1022.48,2069.00,1449.09,1770.59,1971.43,599.89,619.04,53.11,0000 0000 0000 0000 000000
2016-04-10 00:34:14,0.09,7.90,0.00,13.69,18.08,22.18,15.28,51.19,1022.48,2068.99,1448.46,1770.00,1970.81,600.32,619.22,53.16,0000 0000 0000 0000 000000
2016-04-10 00:39:15,0.11,7.91,0.00,13.72,18.13,22.25,15.28,51.19,1022.48,2068.96,1447.81,1769.32,1970.05,600.31,619.25,53.21,0000 0000 0000 0000 000000
2016-04-10 00:44:17,0.06,7.91,0.00,13.77,18.17,22.31,15.26,51.06,1022.48,2068.86,1447.03,1768.92,1969.32,600.42,619.21,53.26,0000 0000 0000 0000 000000
2016-04-10 00:49:18,0.08,7.91,0.00,13.83,18.21,22.35,15.30,51.17,1022.48,2068.46,1446.19,1768.10,1968.83,600.23,618.82,53.31,0000 0000 0000 0000 000000
2016-04-10 00:54:19,0.00,7.92,0.00,13.90,18.26,22.40,15.20,51.02,1022.48,2068.07,1445.76,1767.89,1968.04,599.79,618.29,53.36,0000 0000 0000 0000 000000
2016-04-10 00:59:20,0.14,7.92,0.00,13.97,18.30,22.52,15.25,51.05,1022.48,2068.01,1444.96,1767.09,1967.28,600.30,618.69,53.41,0000 0000 0000 0000 000000
2016-04-10 01:04:22,0.13,7.93,0.00,14.05,18.35,22.60,15.28,51.14,1022.48,2068.00,1444.08,1766.40,1966.68,600.24,618.36,53.46,0000 0000 0000 0000 000000
2016-04-10 01:09:23,0.08,7.93,0.00,14.13,18.40,22.65,15.22,50.95,1022.47,2067.99,1443.49,1765.93,1965.99,600.07,618.05,53.51,0000 0000 0000 0000 000000
2016-04-10 01:14:24,0.13,7.94,0.00,14.20,18.45,22.70,15.14,51.21,1022.40,2067.95,1442.64,1765.11,1965.14,599.54,617.32,53.56,0000 0000 0000 0000 000000
2016-04-10 01:19:26,0.01,7.94,0.00,14.27,18.50,22.78,15.13,51.11,1022.25,2067.52,1441.94,1764.70,1964.53,600.00,617.58,53.61,0000 0000 0000 0000 000000
2016-04-10 01:24:27,0.06,7.94,0.00,14.33,18.56,22.82,15.20,51.11,1022.31,2067.06,1441.10,1764.02,1963.91,599.84,617.27,53.66,0000 0000 0000 0000 000000
2016-04-10 01:29:28,0.09,7.95,0.00,14.37,18.61,22.84,15.14,51.22,1022.39,2067.01,1440.79,1763.45,1963.07,599.94,617.39,53.71,0000 0000 0000 0000 000000
2016-04-10 01:34:30,0.10,7.95,0.00,14.45,18.66,22.95,15.15,51.19,1022.39,2067.00,1439.91,1762.96,1962.36,599.91,617.15,53.77,0000 0000 0000 0000 000000
2016-04-10 01:39:31,0.10,7.96,0.00,14.51,18.72,23.04,15.16,51.25,1022.38,2066.97,1439.24,1762.24,1961.82,599.90,617.00,53.82,0000 0000 0000 0000 000000
2016-04-10 01:44:32,0.05,7.96,0.00,14.58,18.78,23.06,15.18,51.17,1022.31,2066.62,1438.39,1761.81,1961.03,600.04,616.96,53.87,0000 0000 0000 0000 000000
2016-04-10 01:49:33,0.06,7.96,0.00,14.63,18.84,23.12,15.14,51.21,1022.13,2066.06,1437.65,1761.06,1960.26,599.94,616.64,53.92,0000 0000 0000 0000 000000
2016-04-10 01:54:35,0.10,7.97,0.00,14.71,18.90,23.20,15.15,51.16,1022.25,2066.00,1437.01,1760.45,1959.67,600.13,616.72,53.97,0000 0000 0000 0000 000000
2016-04-10 01:59:36,0.08,7.97,0.00,14.78,18.97,23.18,15.20,51.25,1022.27,2065.99,1436.26,1760.00,1958.95,600.05,616.45,54.02,0000 0000 0000 0000 000000
2016-04-10 02:04:37,0.06,7.98,0.00,14.84,19.03,23.22,15.18,51.12,1022.22,2065.77,1435.84,1759.38,1958.08,599.99,616.29,54.07,0000 0000 0000 0000 000000
2016-04-10 02:09:39,0.11,7.98,0.00,14.91,19.09,23.31,15.18,51.19,1022.13,2065.11,1434.73,1758.40,1957.30,599.99,616.09,54.12,0000 0000 0000 0000 000000
2016-04-10 02:14:40,0.04,7.99,0.00,14.95,19.16,23.38,15.17,51.17,1022.27,2065.01,1434.14,1757.97,1956.64,600.37,616.48,54.17,0000 0000 0000 0000 000000
2016-04-10 02:19:41,0.12,7.99,0.00,15.01,19.22,23.40,15.13,51.17,1022.21,2065.00,1433.61,1757.17,1955.91,599.83,615.91,54.22,0000 0000 0000 0000 000000
2016-04-10 02:24:42,0.09,8.00,0.00,15.08,19.29,23.40,15.10,51.13,1022.10,2064.90,1432.84,1756.69,1955.08,599.63,615.33,54.27,0000 0000 0000 0000 000000
2016-04-10 02:29:44,0.01,8.00,0.00,15.15,19.35,23.48,15.21,51.03,1022.02,2064.30,1432.18,1756.03,1954.32,600.11,615.64,54.32,0000 0000 0000 0000 000000
2016-04-10 02:34:45,0.10,8.00,0.00,15.22,19.42,23.56,15.18,51.17,1022.00,2064.01,1431.72,1755.37,1953.53,600.03,615.55,54.37,0000 0000 0000 0000 000000
2016-04-10 02:39:46,0.12,8.01,0.00,15.29,19.48,23.59,15.04,51.17,1022.01,2063.98,1430.76,1754.75,1952.81,599.78,615.06,54.42,0000 0000 0000 0000 000000
2016-04-10 02:44:46,0.12,8.02,0.00,15.36,19.55,23.66,15.12,51.19,1021.99,2063.92,1429.47,1754.01,1952.03,600.14,615.27,54.47,0000 0000 0000 0000 000000
2016-04-10 02:49:47,0.01,8.02,0.00,15.40,19.62,23.66,15.16,51.27,1021.99,2063.28,1428.95,1753.21,1951.23,599.76,614.76,54.52,0000 0000 0000 0000 000000
2016-04-10 02:54:49,0.09,8.02,0.00,15.48,19.69,23.69,15.05,51.27,1021.99,2063.01,1428.52,1752.78,1950.40,599.74,614.47,54.58,0000 0000 0000 0000 000000
2016-04-10 02:59:50,0.14,8.03,0.00,15.56,19.76,23.74,15.08,51.10,1021.99,2063.00,1427.16,1752.01,1949.71,599.79,614.47,54.63,0000 0000 0000 0000 000000
2016-04-10 03:04:52,0.11,8.03,0.00,15.62,19.82,23.83,15.12,51.06,1021.99,2062.93,1426.54,1751.22,1948.95,600.23,614.69,54.68,0000 0000 0000 0000 000000
2016-04-10 03:09:53,-0.02,8.03,0.00,15.69,19.89,23.89,15.12,51.32,1021.99,2062.34,1425.97,1750.75,1948.10,599.99,614.33,54.73,0000 0000 0000 0000 000000
2016-04-10 03:14:54,0.11,8.04,0.00,15.74,19.96,23.92,15.12,51.13,1021.99,2062.01,1425.40,1750.01,1947.40,599.98,614.27,54.78,0000 0000 0000 0000 000000
2016-04-10 03:19:55,0.15,8.04,0.00,15.82,20.03,24.00,15.03,51.09,1021.98,2061.99,1424.37,1749.25,1946.66,599.75,613.76,54.83,0000 0000 0000 0000 000000
2016-04-10 03:24:56,0.09,8.05,0.00,15.88,20.10,24.08,15.12,51.24,1021.99,2061.95,1423.62,1748.76,1945.97,600.05,613.98,54.88,0000 0000 0000 0000 000000
2016-04-10 03:29:58,-0.02,8.05,0.00,15.94,20.16,24.16,15.17,51.17,1021.99,2061.44,1422.98,1748.03,1945.13,599.99,613.71,54.93,0000 0000 0000 0000 000000
2016-04-10 03:34:59,0.13,8.05,0.00,16.02,20.23,24.21,15.05,51.15,1021.99,2061.01,1422.16,1747.38,1944.38,599.62,613.19,54.98,0000 0000 0000 0000 000000
2016-04-10 03:40:00,0.07,8.06,0.00,16.09,20.30,24.21,15.07,51.19,1021.99,2060.99,1421.67,1746.84,1943.63,600.11,613.61,55.03,0000 0000 0000 0000 000000
2016-04-10 03:45:01,0.09,8.07,0.00,16.17,20.36,24.27,15.03,51.10,1021.98,2060.81,1420.80,1746.05,1942.89,600.00,613.34,55.08,0000 0000 0000 0000 000000
2016-04-10 03:50:03,0.04,8.07,0.00,16.24,20.43,24.35,15.09,51.23,1021.99,2060.10,1420.16,1745.40,1942.05,600.13,613.24,55.13,0000 0000 0000 0000 000000
2016-04-10 03:55:04,0.10,8.07,0.00,16.30,20.50,24.37,15.03,50.92,1021.98,2060.00,1419.54,1744.87,1941.24,600.14,613.19,55.18,0000 0000 0000 0000 000000
2016-04-10 04:00:06,0.15,8.08,0.00,16.39,20.57,24.49,15.08,51.04,1021.99,2059.97,1418.49,1744.06,1940.51,600.07,612.87,55.23,0000 0000 0000 0000 000000
2016-04-10 04:05:07,0.10,8.08,0.00,16.47,20.64,24.51,15.10,50.97,1021.98,2059.78,1417.53,1743.37,1939.87,600.43,613.21,55.28,0000 0000 0000 0000 000000
2016-04-10 04:10:08,-0.01,8.08,0.00,16.53,20.71,24.57,15.14,51.13,1021.96,2059.14,1416.86,1742.84,1939.05,600.18,612.74,55.33,0000 0000 0000 0000 000000
2016-04-10 04:15:09,0.13,8.09,0.00,16.59,20.78,24.63,14.98,50.95,1021.96,2059.01,1416.05,1742.05,1938.18,599.83,612.24,55.38,0000 0000 0000 0000 000000
2016-04-10 04:20:11,0.14,8.10,0.00,16.65,20.85,24.67,15.01,51.12,1021.95,2058.99,1415.33,1741.38,1937.47,600.03,612.42,55.43,0000 0000 0000 0000 000000
2016-04-10 04:25:12,0.05,8.10,0.00,16.71,20.92,24.72,15.03,51.05,1021.89,2058.76,1414.56,1740.81,1936.78,600.04,612.10,55.48,0000 0000 0000 0000 000000
2016-04-10 04:30:14,0.02,8.10,0.00,16.75,20.99,24.77,14.99,51.22,1021.72,2058.10,1413.86,1740.04,1936.01,599.93,611.73,55.53,0000 0000 0000 0000 000000
2016-04-10 04:35:15,0.14,8.11,0.00,16.80,21.07,24.85,15.00,51.27,1021.58,2058.00,1412.99,1739.28,1935.13,599.84,611.59,55.59,0000 0000 0000 0000 000000
2016-04-10 04:40:16,0.11,8.11,0.00,16.87,21.13,24.91,15.02,51.30,1021.55,2057.98,1412.11,1738.82,1934.43,599.92,611.58,55.64,0000 0000 0000 0000 000000
2016-04-10 04:45:17,0.06,8.12,0.00,16.88,21.20,24.98,14.99,51.13,1021.52,2057.65,1411.41,1738.03,1933.62,600.14,611.87,55.69,0000 0000 0000 0000 000000
2016-04-10 04:50:18,0.07,8.12,0.00,16.86,21.27,25.07,14.95,51.27,1021.51,2057.14,1410.68,1737.29,1932.87,599.52,611.16,55.74,0000 0000 0000 0000 000000
2016-04-10 04:55:20,0.10,8.13,0.00,16.87,21.34,25.14,14.99,51.24,1021.50,2057.00,1409.87,1736.64,1932.02,599.72,611.33,55.79,0000 0000 0000 0000 000000
2016-04-10 05:00:21,0.11,8.13,0.00,16.89,21.41,25.24,14.97,51.24,1021.50,2056.99,1409.03,1735.99,1931.16,599.99,611.43,55.84,0000 0000 0000 0000 000000
2016-04-10 05:05:22,0.11,8.14,0.00,16.90,21.47,25.35,15.07,51.20,1021.50,2056.74,1408.17,1735.14,1930.37,600.12,611.64,55.89,0000 0000 0000 0000 000000
2016-04-10 05:10:24,0.07,8.14,0.00,16.91,21.53,25.42,15.03,51.22,1021.49,2056.11,1407.37,1734.49,1929.65,599.90,611.61,55.94,0000 0000 0000 0000 000000
2016-04-10 05:15:25,0.08,8.15,0.00,16.91,21.58,25.48,15.06,51.19,1021.49,2056.01,1406.66,1733.89,1928.89,600.28,611.66,55.99,0000 0000 0000 0000 000000
2016-04-10 05:20:26,0.13,8.15,0.00,16.94,21.63,25.55,15.09,51.24,1021.41,2055.99,1405.81,1733.08,1928.06,600.02,611.43,56.04,0000 0000 0000 0000 000000
2016-04-10 05:25:27,0.13,8.16,0.00,16.97,21.68,25.60,14.97,51.03,1021.32,2055.97,1405.01,1732.49,1927.25,599.91,611.16,56.09,0000 0000 0000 0000 000000
2016-04-10 05:30:29,0.06,8.16,0.00,16.98,21.73,25.69,14.95,51.19,1021.24,2055.67,1404.15,1731.90,1926.56,600.08,611.26,56.14,0000 0000 0000 0000 000000
2016-04-10 05:35:30,0.05,8.16,0.00,17.00,21.77,25.72,15.09,51.22,1021.20,2055.09,1403.39,1731.09,1925.86,599.94,610.99,56.19,0000 0000 0000 0000 000000
2016-04-10 05:40:31,0.14,8.17,0.00,17.02,21.80,25.73,15.02,51.09,1021.14,2055.01,1402.50,1730.50,1925.03,600.18,611.19,56.24,0000 0000 0000 0000 000000
2016-04-10 05:45:33,0.09,8.18,0.00,17.04,21.84,25.81,15.02,51.10,1021.05,2055.00,1401.78,1729.93,1924.19,600.05,611.00,56.29,0000 0000 0000 0000 000000
2016-04-10 05:50:34,0.13,8.18,0.00,17.05,21.88,25.86,15.00,51.18,1021.03,2055.00,1401.00,1729.10,1923.53,599.76,610.66,56.34,0000 0000 0000 0000 000000
2016-04-10 05:55:36,0.12,8.19,0.00,17.07,21.91,25.85,15.05,51.02,1021.04,2054.96,1400.15,1728.56,1922.82,600.24,610.95,56.39,0000 0000 0000 0000 000000
2016-04-10 06:00:37,0.06,8.20,0.00,17.09,21.94,25.89,15.06,51.13,1021.03,2054.78,1399.44,1727.98,1922.03,600.24,611.01,56.45,0000 0000 0000 0000 000000
2016-04-10 06:05:38,0.10,8.20,0.00,17.10,21.98,25.90,14.99,50.94,1021.02,2054.41,1398.58,1727.23,1921.20,599.78,610.67,56.50,0000 0000 0000 0000 000000
2016-04-10 06:10:39,0.03,8.20,0.00,17.13,22.00,25.91,15.01,51.05,1021.02,2054.10,1397.98,1726.90,1920.58,599.90,610.63,56.55,0000 0000 0000 0000 000000
2016-04-10 06:15:40,0.11,8.21,0.00,17.15,22.03,25.92,15.03,51.11,1021.01,2054.02,1397.21,1726.12,1919.98,599.98,610.65,56.60,0000 0000 0000 0000 000000
2016-04-10 06:20:42,0.09,8.21,0.00,17.14,22.07,25.92,14.96,51.08,1021.01,2054.01,1396.67,1725.78,1919.19,599.86,610.54,56.65,0000 0000 0000 0000 000000
2016-04-10 06:25:43,0.09,8.22,0.00,17.18,22.10,25.95,15.05,50.99,1021.01,2054.00,1396.00,1725.05,1918.64,600.17,610.79,56.70,0000 0000 0000 0000 000000
2016-04-10 06:30:44,0.13,8.22,0.00,17.18,22.13,26.01,15.03,51.05,1021.01,2053.98,1395.17,1724.47,1917.96,599.75,610.38,56.75,0000 0000 0000 0000 000000
2016-04-10 06:35:45,0.11,8.23,0.00,17.18,22.16,25.98,14.95,51.11,1021.01,2053.98,1394.41,1723.92,1917.14,599.82,610.38,56.80,0000 0000 0000 0000 000000
2016-04-10 06:40:46,0.08,8.23,0.00,17.21,22.19,25.96,14.99,51.02,1021.01,2053.85,1393.87,1723.11,1916.44,600.21,610.82,56.85,0000 0000 0000 0000 000000
2016-04-10 06:45:48,0.05,8.24,0.00,17.23,22.22,26.01,15.02,51.10,1021.01,2053.63,1393.08,1722.78,1915.93,599.90,610.43,56.90,0000 0000 0000 0000 000000
2016-04-10 06:50:49,0.07,8.24,0.00,17.25,22.25,26.03,15.00,51.09,1021.01,2053.18,1392.36,1722.04,1915.11,599.92,610.43,56.95,0000 0000 0000 0000 000000
2016-04-10 06:55:50,0.09,8.24,0.00,17.29,22.28,26.07,14.96,51.04,1021.01,2053.04,1391.82,1721.49,1914.39,599.84,610.40,57.00,0000 0000 0000 0000 000000
2016-04-10 07:00:52,0.08,8.25,0.00,17.29,22.30,26.09,15.00,51.00,1021.01,2053.00,1391.02,1720.97,1913.81,599.99,610.51,57.05,0000 0000 0000 0000 000000
2016-04-10 07:05:53,0.14,8.26,0.00,17.28,22.33,26.06,14.96,50.77,1021.01,2053.00,1390.25,1720.21,1913.03,599.82,610.23,57.10,0000 0000 0000 0000 000000
2016-04-10 07:10:55,0.09,8.26,0.00,17.30,22.35,26.17,14.97,50.85,1021.00,2053.00,1389.66,1719.89,1912.34,599.81,610.12,57.15,0000 0000 0000 0000 000000
2016-04-10 07:15:56,0.08,8.27,0.00,17.31,22.38,26.19,15.04,50.92,1020.99,2052.99,1388.97,1719.10,1911.89,600.29,610.65,57.20,0000 0000 0000 0000 000000
2016-04-10 07:20:57,0.13,8.27,0.00,17.30,22.40,26.16,14.99,51.04,1020.98,2052.92,1388.12,1718.64,1911.07,599.79,610.15,57.25,0000 0000 0000 0000 000000
2016-04-10 07:25:58,0.10,8.28,0.00,17.32,22.43,26.22,15.03,51.05,1020.97,2052.80,1387.50,1718.01,1910.33,600.06,610.36,57.30,0000 0000 0000 0000 000000
2016-04-10 07:30:59,0.03,8.28,0.00,17.35,22.45,26.25,15.03,50.98,1020.92,2052.42,1386.82,1717.39,1909.76,600.09,610.23,57.35,0000 0000 0000 0000 000000
2016-04-10 07:36:00,0.06,8.28,0.00,17.37,22.48,26.19,15.01,50.97,1020.79,2052.08,1386.04,1716.95,1909.02,600.33,610.41,57.41,0000 0000 0000 0000 000000
2016-04-10 07:41:01,0.14,8.29,0.00,17.38,22.51,26.20,15.03,50.97,1020.65,2052.03,1385.43,1716.17,1908.36,600.13,610.03,57.46,0000 0000 0000 0000 000000
2016-04-10 07:46:03,0.04,8.29,0.00,17.37,22.53,26.26,15.07,51.00,1020.67,2052.01,1384.86,1715.88,1907.88,600.08,610.04,57.51,0000 0000 0000 0000 000000
2016-04-10 07:51:04,0.14,8.30,0.00,17.39,22.55,26.27,14.96,50.99,1020.70,2052.00,1384.06,1715.07,1907.05,599.92,609.97,57.56,0000 0000 0000 0000 000000
2016-04-10 07:56:05,0.14,8.30,0.00,17.42,22.58,26.34,14.94,51.01,1020.66,2052.00,1383.29,1714.61,1906.39,599.76,609.64,57.61,0000 0000 0000 0000 000000
2016-04-10 08:01:07,0.05,8.31,0.00,17.43,22.60,26.31,14.91,50.98,1020.60,2052.00,1382.77,1714.01,1905.89,599.56,609.36,57.66,0000 0000 0000 0000 000000
2016-04-10 08:06:08,0.13,8.32,0.00,17.45,22.62,26.47,15.07,51.01,1020.58,2051.99,1382.02,1713.46,1905.07,599.95,609.73,57.71,0000 0000 0000 0000 000000
2016-04-10 08:11:09,0.10,8.32,0.00,17.46,22.64,26.57,15.00,51.05,1020.54,2051.97,1381.23,1712.99,1904.41,600.04,609.79,57.76,0000 0000 0000 0000 000000
2016-04-10 08:16:10,0.09,8.33,0.00,17.49,22.66,26.39,14.99,50.91,1020.53,2051.82,1380.51,1712.22,1903.87,600.04,609.70,57.81,0000 0000 0000 0000 000000
2016-04-10 08:21:11,0.04,8.33,0.00,17.51,22.68,26.47,15.06,51.03,1020.52,2051.51,1379.84,1711.83,1903.06,600.21,609.89,57.86,0000 0000 0000 0000 000000
2016-04-10 08:26:13,0.09,8.33,0.00,17.52,22.69,26.47,15.08,50.97,1020.52,2051.17,1379.02,1711.06,1902.38,599.98,609.58,57.91,0000 0000 0000 0000 000000
2016-04-10 08:31:14,0.13,8.34,0.00,17.49,22.71,26.52,14.97,50.88,1020.53,2051.06,1378.19,1710.51,1901.83,600.26,609.90,57.96,0000 0000 0000 0000 000000
2016-04-10 08:36:15,0.08,8.34,0.00,17.50,22.72,26.41,15.06,50.91,1020.52,2051.02,1377.53,1709.99,1901.05,600.20,609.71,58.01,0000 0000 0000 0000 000000
2016-04-10 08:41:17,0.12,8.35,0.00,17.54,22.74,26.52,15.06,50.95,1020.52,2051.03,1376.88,1709.34,1900.45,600.13,609.73,58.06,0000 0000 0000 0000 000000
2016-04-10 08:46:18,0.06,8.36,0.00,17.56,22.74,26.50,15.00,50.93,1020.53,2051.01,1376.06,1708.96,1899.91,599.90,609.49,58.11,0000 0000 0000 0000 000000
2016-04-10 08:51:19,0.16,8.36,0.00,17.55,22.77,26.62,15.07,51.03,1020.54,2051.00,1375.36,1708.16,1899.09,600.11,609.74,58.16,0000 0000 0000 0000 000000
2016-04-10 08:56:20,0.08,8.37,0.00,17.57,22.77,26.65,15.03,50.94,1020.53,2051.00,1374.69,1707.88,1898.57,600.07,609.59,58.21,0000 0000 0000 0000 000000
2016-04-10 09:01:22,0.10,8.37,0.00,17.57,22.79,26.70,14.96,50.83,1020.52,2051.00,1374.00,1707.09,1897.97,600.00,609.54,58.26,0000 0000 0000 0000 000000
2016-04-10 09:06:23,0.12,8.38,0.00,17.57,22.80,26.62,15.01,50.78,1020.52,2051.00,1373.24,1706.80,1897.19,600.14,609.68,58.32,0000 0000 0000 0000 000000
2016-04-10 09:11:24,0.11,8.38,0.00,17.57,22.82,26.73,15.06,50.81,1020.52,2050.99,1372.66,1706.04,1896.68,599.90,609.58,58.37,0000 0000 0000 0000 000000
2016-04-10 09:16:25,0.09,8.39,0.00,17.57,22.82,26.65,15.02,51.01,1020.52,2050.99,1371.96,1705.55,1896.00,599.99,609.43,58.42,0000 0000 0000 0000 000000
2016-04-10 09:21:27,0.11,8.40,0.00,17.57,22.84,26.59,15.04,50.80,1020.52,2050.98,1371.12,1705.01,1895.35,599.90,609.37,58.47,0000 0000 0000 0000 000000
2016-04-10 09:26:28,0.13,8.40,0.00,17.57,22.84,26.56,15.03,50.90,1020.52,2050.98,1370.47,1704.37,1894.79,600.26,609.82,58.52,0000 0000 0000 0000 000000
2016-04-10 09:31:29,0.07,8.41,0.00,17.60,22.86,26.67,14.94,50.67,1020.52,2050.97,1369.78,1703.97,1894.03,599.46,608.93,58.57,0000 0000 0000 0000 000000
2016-04-10 09:36:30,0.13,8.41,0.00,17.60,22.87,26.65,14.94,50.74,1020.52,2050.97,1369.03,1703.23,1893.42,599.73,609.17,58.62,0000 0000 0000 0000 000000
2016-04-10 09:41:31,0.09,8.42,0.00,17.59,22.88,26.64,15.02,50.75,1020.52,2050.97,1368.26,1702.86,1892.90,599.90,609.47,58.67,0000 0000 0000 0000 000000
2016-04-10 09:46:33,0.10,8.42,0.00,17.60,22.89,26.82,14.93,50.83,1020.52,2050.93,1367.81,1702.08,1892.07,599.97,609.46,58.72,0000 0000 0000 0000 000000
2016-04-10 09:51:34,0.09,8.43,0.00,17.61,22.90,26.81,15.03,50.99,1020.52,2050.93,1367.03,1701.79,1891.60,600.00,609.50,58.77,0000 0000 0000 0000 000000
2016-04-10 09:56:36,0.11,8.43,0.00,17.62,22.92,26.82,15.08,51.08,1020.52,2050.84,1366.35,1701.04,1890.97,600.20,609.55,58.82,0000 0000 0000 0000 000000
2016-04-10 10:01:37,0.09,8.44,0.00,17.62,22.92,26.84,14.94,51.07,1020.51,2050.69,1365.76,1700.58,1890.17,599.80,609.20,58.87,0000 0000 0000 0000 000000
2016-04-10 10:06:38,0.04,8.44,0.00,17.64,22.94,26.74,15.01,51.38,1020.47,2050.47,1364.99,1700.00,1889.74,599.96,609.29,58.92,0000 0000 0000 0000 000000
2016-04-10 10:11:39,0.12,8.45,0.00,17.63,22.94,26.81,14.97,50.85,1020.49,2050.24,1364.20,1699.38,1889.01,599.99,609.48,58.97,0000 0000 0000 0000 000000
2016-04-10 10:16:40,0.07,8.45,0.00,17.64,22.96,26.61,15.05,50.99,1020.50,2050.07,1363.54,1698.98,1888.26,600.11,609.45,59.02,0000 0000 0000 0000 000000
2016-04-10 10:21:42,0.08,8.45,0.00,17.64,22.97,26.69,14.98,51.00,1020.52,2050.04,1362.94,1698.25,1887.86,600.14,609.42,59.07,0000 0000 0000 0000 000000
2016-04-10 10:26:43,0.11,8.46,0.00,17.67,22.97,26.80,14.96,50.98,1020.52,2050.02,1362.08,1697.87,1887.05,599.94,609.23,59.12,0000 0000 0000 0000 000000
2016-04-10 10:31:44,0.15,8.47,0.00,17.65,22.98,26.64,14.96,51.02,1020.52,2050.00,1361.40,1697.08,1886.36,599.74,609.21,59.18,0000 0000 0000 0000 000000
2016-04-10 10:36:46,0.05,8.47,0.00,17.63,22.99,26.63,14.98,50.89,1020.52,2050.01,1360.85,1696.80,1885.90,599.78,609.06,59.23,0000 0000 0000 0000 000000
2016-04-10 10:41:47,0.13,8.48,0.00,17.63,22.99,26.64,15.05,51.01,1020.52,2050.02,1360.05,1696.08,1885.09,600.10,609.52,59.28,0000 0000 0000 0000 000000
2016-04-10 10:46:48,0.10,8.48,0.00,17.64,22.99,26.63,15.02,50.98,1020.52,2050.01,1359.44,1695.81,1884.68,600.06,609.20,59.33,0000 0000 0000 0000 000000
2016-04-10 10:51:49,0.09,8.49,0.00,17.63,22.99,26.88,15.08,51.00,1020.52,2050.02,1358.82,1695.06,1884.02,600.02,609.32,59.38,0000 0000 0000 0000 000000
2016-04-10 10:56:50,0.12,8.49,0.00,17.62,22.99,26.92,15.02,51.06,1020.52,2050.01,1358.03,1694.64,1883.37,600.11,609.51,59.43,0000 0000 0000 0000 000000
2016-04-10 11:01:51,0.09,8.50,0.00,17.61,22.99,26.75,15.00,51.02,1020.50,2050.01,1357.30,1694.01,1882.90,600.32,609.73,59.48,0000 0000 0000 0000 000000
2016-04-10 11:06:53,0.14,8.50,0.00,17.61,22.99,26.70,15.00,50.86,1020.49,2050.01,1356.57,1693.58,1882.08,599.69,609.09,59.53,0000 0000 0000 0000 000000
2016-04-10 11:11:54,0.06,8.51,0.00,17.60,22.98,26.84,15.03,50.90,1020.51,2050.02,1355.93,1693.01,1881.65,599.93,609.38,59.58,0000 0000 0000 0000 000000
2016-04-10 11:16:56,0.13,8.52,0.00,17.59,22.97,26.85,14.99,50.93,1020.52,2050.01,1355.09,1692.45,1881.01,600.24,609.84,59.63,0000 0000 0000 0000 000000
2016-04-10 11:21:57,0.11,8.52,0.00,17.58,22.97,26.94,15.11,50.91,1020.52,2050.02,1354.41,1692.00,1880.30,600.22,609.72,59.68,0000 0000 0000 0000 000000
2016-04-10 11:26:58,0.10,8.53,0.00,17.58,22.97,26.90,15.00,50.80,1020.52,2050.02,1353.72,1691.39,1879.93,600.02,609.51,59.73,0000 0000 0000 0000 000000
2016-04-10 11:31:59,0.08,8.53,0.00,17.58,22.95,26.81,14.96,50.99,1020.52,2050.03,1352.95,1690.99,1879.13,600.06,609.53,59.78,0000 0000 0000 0000 000000
2016-04-10 11:37:01,0.15,8.54,0.00,17.57,22.94,26.86,14.94,50.92,1020.52,2050.07,1352.10,1690.32,1878.72,599.99,609.40,59.83,0000 0000 0000 0000 000000
2016-04-10 11:42:03,0.09,8.54,0.00,17.56,22.94,26.91,15.03,51.07,1020.52,2050.07,1351.40,1689.95,1878.02,600.15,609.66,59.88,0000 0000 0000 0000 000000
2016-04-10 11:47:04,0.13,8.55,0.00,17.55,22.94,26.90,15.01,50.88,1020.51,2050.11,1350.81,1689.16,1877.33,599.89,609.42,59.93,0000 0000 0000 0000 000000
2016-04-10 11:52:05,0.07,8.56,0.00,17.54,22.93,26.89,15.03,50.84,1020.42,2050.17,1350.04,1688.92,1876.89,599.85,609.32,59.98,0000 0000 0000 0000 000000
2016-04-10 11:57:06,0.16,8.56,0.00,17.52,22.92,26.87,15.00,50.92,1020.38,2050.17,1349.29,1688.11,1876.08,599.77,609.42,60.03,0000 0000 0000 0000 000000
2016-04-10 12:02:08,0.03,1.71,0.00,17.49,22.94,26.88,13.14,44.14,1020.30,2054.25,3164.17,2941.26,3325.23,530.04,538.37,0.00,0000 0000 0000 0000 000000
2016-04-10 12:07:09,0.03,0.00,0.00,17.49,22.92,26.84,14.98,50.38,1020.19,2055.06,3522.47,3190.12,3613.47,600.13,609.60,0.05,0000 0000 0000 0000 000000
2016-04-10 12:12:10,0.04,0.00,0.00,17.49,22.92,26.81,14.98,50.37,1020.10,2055.13,3519.68,3188.55,3611.40,599.93,609.41,0.10,0000 0000 0000 0000 000000
2016-04-10 12:17:11,0.06,0.01,0.00,17.49,22.90,26.83,14.99,50.34,1020.06,2055.17,3517.25,3187.03,3609.49,599.80,609.18,0.15,0000 0000 0000 0000 000000
2016-04-10 12:22:12,0.09,0.01,0.00,17.48,22.89,26.84,15.06,50.23,1020.05,2055.44,3514.75,3185.59,3607.68,600.15,609.56,0.20,0000 0000 0000 0000 000000
2016-04-10 12:27:14,0.11,0.02,0.00,17.47,22.89,26.84,15.03,50.02,1020.06,2055.67,3512.26,3184.05,3605.76,599.93,609.27,0.25,0000 0000 0000 0000 000000
2016-04-10 12:32:15,0.12,0.03,0.00,17.47,22.88,26.83,14.99,50.08,1020.05,2055.83,3509.93,3182.59,3603.87,600.00,609.43,0.30,0000 0000 0000 0000 000000
2016-04-10 12:37:16,0.09,0.03,0.00,17.48,22.87,26.81,15.01,50.20,1020.04,2055.93,3507.63,3181.19,3602.21,600.13,609.52,0.35,0000 0000 0000 0000 000000
2016-04-10 12:42:17,0.09,0.04,0.00,17.45,22.87,26.82,14.99,50.08,1020.04,2055.95,3505.43,3179.76,3600.48,599.68,609.13,0.40,0000 0000 0000 0000 000000
2016-04-10 12:47:19,0.09,0.04,0.00,17.44,22.85,26.82,15.02,50.13,1020.04,2055.97,3503.29,3178.41,3598.68,600.15,609.63,0.45,0000 0000 0000 0000 000000
2016-04-10 12:52:20,0.09,0.05,0.00,17.43,22.84,26.83,15.07,50.05,1020.04,2055.97,3501.08,3176.98,3596.99,600.50,609.96,0.50,0000 0000 0000 0000 000000
2016-04-10 12:57:21,0.09,0.05,0.00,17.42,22.84,26.82,15.02,50.10,1020.02,2055.97,3498.93,3175.61,3595.40,599.95,609.46,0.55,0000 0000 0000 0000 000000